Date,TemperatureHighF,TemperatureAvgF,TemperatureLowF,DewpointHighF,DewpointAvgF,DewpointLowF,HumidityHigh,HumidityAvg,HumidityLow,PressureMaxIn,PressureMinIn,WindSpeedMaxMPH,WindSpeedAvgMPH,GustSpeedMaxMPH,PrecipitationSumIn
2013-1-1,44.1,41.0,38.6,44.0,36.1,24.0,98,84,53,30.25,30.07,3,0,6,0.48
2013-1-2,44.6,40.3,36.9,44.0,37.1,35.0,98,88,76,30.24,30.04,9,1,14,0.50
2013-1-3,39.5,36.0,31.6,38.0,32.4,25.0,98,87,69,30.41,30.20,9,1,15,0.01
2013-1-4,38.7,32.2,27.2,25.0,19.5,15.0,77,61,38,30.51,30.40,16,3,21,0.01
2013-1-5,48.5,35.6,24.9,29.0,21.6,18.0,80,59,30,30.54,30.36,6,0,15,0.00
2013-1-6,45.8,39.2,35.1,37.0,32.7,29.0,90,78,67,30.34,30.17,12,1,20,0.01
2013-1-7,46.9,36.9,29.3,31.0,26.4,22.0,84,67,39,30.52,30.33,10,2,20,0.00
2013-1-8,51.3,39.4,28.1,43.0,33.7,26.0,91,80,66,30.57,30.47,3,0,5,0.00
2013-1-9,54.7,51.2,45.1,52.0,49.4,42.0,97,93,86,30.55,30.48,2,0,3,0.00
2013-1-10,61.8,53.5,46.0,54.0,49.8,45.0,99,88,73,30.58,30.41,7,1,14,0.01
2013-1-11,57.6,51.8,46.0,57.0,51.2,45.0,99,97,93,30.41,30.21,6,1,9,0.11
2013-1-12,69.2,60.9,57.0,62.0,58.3,55.0,99,91,74,30.25,30.14,4,0,5,0.01
2013-1-13,66.2,60.7,57.2,58.0,56.3,54.0,92,86,73,30.17,30.09,3,0,8,0.01
2013-1-14,60.0,56.4,45.0,60.0,55.8,44.0,99,98,93,30.22,30.09,3,0,15,0.63
2013-1-15,52.1,48.1,44.8,52.0,47.7,44.0,99,98,98,30.20,30.11,5,1,6,0.58
2013-1-16,56.1,52.5,46.2,55.0,51.9,46.0,99,98,92,30.11,30.03,4,0,12,0.17
2013-1-17,51.9,43.0,32.7,52.0,42.3,30.0,99,97,91,30.30,29.87,11,1,16,1.28
2013-1-18,41.9,33.1,27.1,30.0,26.6,23.0,92,78,49,30.63,30.32,2,0,6,1.28
2013-1-19,49.6,36.5,27.9,28.0,26.0,22.0,88,68,34,30.61,30.31,2,0,3,0.00
2013-1-20,52.2,42.7,31.3,33.0,28.2,19.0,84,58,39,30.30,30.18,11,2,17,0.00
2013-1-21,46.6,36.5,28.4,29.0,23.2,13.0,92,62,37,30.20,30.09,15,3,24,0.00
2013-1-22,28.7,24.3,19.3,13.0,3.0,-5.0,59,42,23,30.40,30.15,16,4,26,0.00
2013-1-23,40.3,30.3,22.7,23.0,15.2,2.0,77,54,40,30.48,30.22,6,1,12,0.00
2013-1-24,42.2,32.4,21.6,31.0,15.6,5.0,72,51,34,30.55,30.13,25,5,37,0.00
2013-1-25,36.8,25.9,19.5,36.0,18.5,4.0,96,75,50,30.58,30.24,5,1,8,0.02
2013-1-26,44.5,36.7,30.2,36.0,25.5,17.0,95,67,35,30.46,30.27,7,1,14,0.02
2013-1-27,40.9,33.1,26.1,31.0,26.6,23.0,91,78,60,30.64,30.45,4,1,6,0.04
2013-1-28,60.1,45.7,34.1,50.0,41.1,32.0,93,85,65,30.57,30.35,6,0,8,0.05
2013-1-29,67.8,54.1,42.7,57.0,49.6,41.0,98,86,61,30.35,30.09,5,0,7,0.01
2013-1-30,60.9,56.7,43.3,60.0,55.5,41.0,98,95,89,30.08,29.51,9,1,15,2.77
2013-1-31,42.7,33.1,28.3,41.0,23.1,18.0,94,68,50,30.14,29.58,18,4,28,2.85
2013-2-1,39.4,24.9,19.0,29.0,10.3,-99.9,80,58,43,30.50,30.04,16,-17,27,0.00
2013-2-2,40.4,28.3,17.6,31.0,19.2,9.0,95,71,37,30.51,30.18,3,0,6,0.00
2013-2-3,40.8,33.9,28.0,32.0,26.2,20.0,95,74,54,30.17,30.01,28,5,37,0.01
2013-2-4,49.8,35.8,25.6,26.0,21.8,17.0,76,59,38,30.26,30.11,9,0,19,0.01
2013-2-5,52.5,41.5,30.8,37.0,30.6,25.0,81,66,52,30.12,30.04,6,1,12,0.00
2013-2-6,54.3,44.9,34.8,36.0,27.1,20.0,86,53,28,30.33,30.12,13,2,17,0.00
2013-2-7,46.4,41.3,38.4,40.0,30.3,19.0,96,69,34,30.34,30.10,10,4,18,0.30
2013-2-8,47.4,40.5,33.2,44.0,36.4,27.0,99,86,59,30.24,30.03,18,4,33,0.30
2013-2-9,50.7,38.0,27.6,27.0,22.7,14.0,87,59,23,30.45,30.22,8,1,26,0.00
2013-2-10,48.1,42.2,38.8,45.0,27.4,20.0,98,58,41,30.50,30.25,8,1,10,0.29
2013-2-11,56.3,50.6,46.4,55.0,43.8,19.0,98,81,31,30.26,30.08,8,1,12,0.37
2013-2-12,50.5,44.2,38.8,37.0,25.6,18.0,92,51,28,30.21,30.01,9,2,18,0.12
2013-2-13,48.0,39.3,34.7,45.0,36.8,30.0,98,91,72,30.00,29.74,8,1,23,0.01
2013-2-14,49.4,38.9,29.6,31.0,27.4,25.0,83,66,40,30.17,30.01,10,2,16,0.01
2013-2-15,53.8,39.1,27.9,37.0,30.0,26.0,94,73,38,30.23,30.06,18,1,20,0.00
2013-2-16,34.8,29.6,21.6,27.0,20.8,11.0,89,70,48,30.13,29.96,17,4,37,0.00
2013-2-17,31.5,24.9,19.2,11.0,9.0,6.0,65,52,36,30.42,30.13,26,6,36,0.00
2013-2-18,48.6,34.7,19.8,25.0,18.8,10.0,75,54,38,30.51,30.32,3,0,9,0.00
2013-2-19,49.8,40.4,32.9,42.0,26.6,14.0,95,61,33,30.31,29.97,16,3,22,0.06
2013-2-20,44.4,34.9,29.1,16.0,4.2,-13.0,53,31,9,30.27,30.14,28,4,32,0.00
2013-2-21,58.0,39.0,23.9,35.0,15.2,5.0,87,43,14,30.35,30.21,5,1,7,0.23
2013-2-22,40.0,36.8,33.3,39.0,35.3,31.0,97,94,86,30.37,30.20,7,1,10,0.36
2013-2-23,53.4,45.3,38.1,50.0,44.0,37.0,99,95,72,30.21,29.93,3,0,11,0.24
2013-2-24,51.7,45.0,38.9,40.0,28.4,20.0,84,56,29,30.14,29.95,14,3,19,0.00
2013-2-25,43.3,37.3,31.8,28.0,24.6,22.0,85,61,52,30.24,30.10,13,3,18,0.00
2013-2-26,39.7,34.5,30.3,39.0,33.1,28.0,98,95,87,30.14,29.71,11,1,22,0.64
2013-2-27,52.9,41.6,33.9,39.0,32.9,29.0,98,73,42,29.91,29.77,10,2,19,0.00
2013-2-28,37.5,33.8,30.1,33.0,26.0,23.0,85,73,62,30.04,29.82,13,4,19,0.00
2013-3-1,36.2,32.4,29.4,28.0,27.2,25.0,90,81,70,30.08,30.01,8,3,17,0.00
2013-3-2,36.9,31.6,26.2,29.0,25.7,19.0,93,79,61,30.08,29.98,11,3,21,0.00
2013-3-3,29.4,25.4,22.3,19.0,15.8,14.0,77,67,56,30.17,30.06,13,5,29,0.00
2013-3-4,48.8,35.2,24.0,24.0,15.1,8.0,71,48,20,30.30,30.15,21,3,32,0.00
2013-3-5,49.8,42.7,33.9,47.0,35.3,23.0,97,76,54,30.20,29.74,9,1,26,0.72
2013-3-6,33.7,28.1,24.6,27.0,23.7,20.0,91,83,73,30.33,29.77,25,6,41,0.01
2013-3-7,39.5,31.0,26.3,29.0,25.5,23.0,90,81,66,30.43,30.28,14,4,21,0.00
2013-3-8,47.7,35.2,23.9,28.0,24.3,22.0,91,67,44,30.48,30.40,7,1,13,0.00
2013-3-9,58.5,42.9,27.0,29.0,25.5,22.0,81,54,32,30.48,30.36,3,0,7,0.00
2013-3-10,61.2,51.6,41.9,36.0,31.9,27.0,60,48,37,30.38,30.24,5,1,8,0.00
2013-3-11,54.5,50.3,47.4,50.0,46.2,34.0,97,87,53,30.26,29.91,5,0,8,0.61
2013-3-12,51.7,44.9,37.8,51.0,37.6,28.0,98,78,48,30.13,29.84,10,3,17,0.31
2013-3-13,41.4,36.8,28.2,32.0,24.0,16.0,75,61,43,30.30,30.12,12,4,26,0.00
2013-3-14,43.7,32.3,23.5,17.0,14.1,9.0,70,50,27,30.44,30.30,20,3,27,0.00
2013-3-15,65.1,47.2,31.7,41.0,28.9,13.0,76,51,27,30.35,30.04,13,1,19,0.00
2013-3-16,73.9,62.6,50.0,46.0,42.8,40.0,70,50,32,30.03,29.80,10,2,20,0.00
2013-3-17,71.3,58.7,44.6,49.0,45.2,42.0,89,63,40,30.06,29.89,13,1,19,0.00
2013-3-18,44.4,40.2,35.5,43.0,38.9,34.0,98,95,90,30.12,29.96,8,2,12,0.35
2013-3-19,52.3,43.2,36.8,43.0,28.4,11.0,99,62,29,30.19,29.99,19,4,30,0.00
2013-3-20,50.0,40.3,30.5,30.0,12.0,6.0,91,33,21,30.21,29.94,9,3,20,0.00
2013-3-21,32.0,27.0,21.1,24.0,12.9,9.0,80,57,41,30.11,29.91,18,4,27,0.00
2013-3-22,49.1,35.4,21.8,22.0,14.4,7.0,69,45,24,30.20,30.11,7,1,11,0.00
2013-3-23,56.2,43.1,34.2,44.0,34.1,22.0,94,72,48,30.16,29.98,5,1,9,0.05
2013-3-24,43.4,39.9,36.9,40.0,38.0,36.0,97,93,85,30.02,29.62,15,4,23,0.56
2013-3-25,37.4,33.0,28.0,37.0,24.7,19.0,97,73,52,30.02,29.64,14,4,28,0.05
2013-3-26,34.4,30.1,26.9,27.0,24.0,22.0,88,78,69,30.35,30.02,15,4,28,0.00
2013-3-27,39.7,33.1,28.6,26.0,23.2,21.0,85,68,50,30.43,30.33,10,3,21,0.00
2013-3-28,47.4,37.3,28.2,22.0,20.3,17.0,75,53,30,30.45,30.37,9,2,19,0.00
2013-3-29,53.3,40.7,30.8,38.0,27.0,14.0,90,62,24,30.46,30.36,9,1,18,0.01
2013-3-30,60.2,49.2,39.8,45.0,40.2,38.0,98,74,49,30.36,30.15,5,0,6,0.22
2013-3-31,64.6,53.0,46.7,54.0,48.4,40.0,98,86,54,30.14,29.90,6,0,11,0.29
2013-4-1,59.7,51.7,40.5,50.0,39.8,32.0,96,66,44,30.07,29.94,12,3,21,0.01
2013-4-2,54.4,45.0,37.5,32.0,23.1,16.0,65,45,24,30.25,30.07,12,3,19,0.00
2013-4-3,58.4,47.5,36.8,25.0,20.6,17.0,54,36,21,30.36,30.25,6,1,14,0.00
2013-4-4,46.8,37.4,32.6,35.0,28.3,18.0,95,74,36,30.35,30.08,13,3,17,0.46
2013-4-5,54.3,44.9,35.9,44.0,37.4,35.0,96,77,50,30.20,30.06,10,2,17,0.00
2013-4-6,64.4,53.2,37.8,38.0,34.0,31.0,82,51,31,30.32,30.20,6,1,7,0.00
2013-4-7,68.3,57.5,44.3,46.0,39.8,33.0,69,53,41,30.29,30.16,4,0,10,0.00
2013-4-8,73.7,61.2,46.1,53.0,47.7,42.0,87,63,43,30.23,30.12,3,0,7,0.00
2013-4-9,78.5,66.7,53.5,57.0,52.6,49.0,86,62,44,30.25,30.15,7,0,8,0.00
2013-4-10,82.4,69.0,55.6,57.0,54.0,51.0,87,61,40,30.16,29.99,5,0,7,0.00
2013-4-11,75.9,66.8,58.6,63.0,56.1,52.0,97,70,46,30.00,29.71,5,1,10,0.37
2013-4-12,66.9,60.3,52.4,63.0,50.5,36.0,99,73,41,29.92,29.66,13,3,19,1.08
2013-4-13,67.1,57.9,49.4,38.0,33.9,28.0,63,43,24,30.12,29.92,13,4,25,0.00
2013-4-14,69.3,56.7,43.4,50.0,40.2,34.0,80,56,34,30.17,30.03,3,0,7,0.00
2013-4-15,64.3,56.4,50.6,55.0,52.5,48.0,95,87,73,30.27,30.04,9,2,13,0.07
2013-4-16,75.1,64.5,56.2,59.0,56.2,53.0,94,76,53,30.35,30.24,5,1,8,0.00
2013-4-17,70.5,63.5,58.4,63.0,58.4,55.0,96,84,71,30.30,30.18,8,0,15,0.21
2013-4-18,72.5,65.2,58.1,61.0,57.6,55.0,92,77,57,30.18,29.98,5,1,7,0.00
2013-4-19,65.6,58.7,42.6,63.0,56.3,34.0,97,91,71,29.98,29.77,10,1,17,0.58
2013-4-20,54.9,45.3,35.8,35.0,28.8,25.0,76,55,33,30.40,29.99,14,3,25,0.00
2013-4-21,57.6,47.4,36.2,37.0,31.4,25.0,79,56,37,30.54,30.40,10,2,21,0.00
2013-4-22,60.4,49.6,41.0,38.0,35.5,32.0,83,60,41,30.50,30.30,9,3,14,0.00
2013-4-23,69.5,54.7,38.4,46.0,37.6,28.0,77,54,34,30.36,30.18,5,1,7,0.00
2013-4-24,70.4,58.9,48.5,59.0,50.2,44.0,91,74,52,30.21,30.06,7,0,18,0.01
2013-4-25,64.9,52.7,40.6,47.0,30.4,5.0,87,51,10,30.41,30.15,12,2,13,0.00
2013-4-26,66.4,55.1,40.2,40.0,33.1,25.0,72,45,32,30.50,30.38,6,1,8,0.00
2013-4-27,57.4,52.2,49.0,51.0,46.4,36.0,98,82,45,30.45,30.33,3,0,4,0.81
2013-4-28,51.2,49.1,46.3,51.0,48.0,43.0,99,96,85,30.33,30.12,6,1,7,1.55
2013-4-29,68.9,58.4,49.5,59.0,54.0,49.0,99,86,55,30.17,30.02,5,0,7,0.04
2013-4-30,71.1,61.3,53.5,58.0,55.0,51.0,97,81,60,30.22,30.04,5,1,8,0.00
2013-5-1,61.7,57.0,53.9,54.0,51.9,50.0,89,83,71,30.33,30.22,9,3,13,0.00
2013-5-2,57.7,53.4,51.3,54.0,51.8,50.0,97,94,87,30.36,30.29,8,2,15,0.04
2013-5-3,55.4,52.5,48.8,52.0,50.1,48.0,98,91,83,30.30,30.16,10,4,17,0.04
2013-5-4,53.5,46.9,43.8,49.0,44.6,40.0,97,91,80,30.17,30.07,16,5,18,0.41
2013-5-5,50.1,45.9,42.9,50.0,45.0,42.0,99,96,95,30.09,29.92,22,8,35,1.86
2013-5-6,61.8,54.2,45.4,54.0,48.9,42.0,99,84,50,29.98,29.90,5,1,7,0.05
2013-5-7,63.1,50.1,40.1,54.0,46.3,39.0,98,88,54,30.05,29.95,6,0,10,0.28
2013-5-8,66.4,56.4,48.9,56.0,52.2,48.0,99,86,61,30.13,30.02,6,1,12,0.07
2013-5-9,73.9,61.8,46.9,57.0,53.4,46.0,98,76,46,30.20,30.10,7,0,13,0.00
2013-5-10,77.2,64.3,52.4,61.0,56.0,51.0,97,76,48,30.17,30.02,3,0,10,0.00
2013-5-11,72.9,63.5,55.9,61.0,57.7,53.0,96,82,62,30.02,29.86,12,1,18,0.15
2013-5-12,59.1,54.4,48.7,52.0,39.4,29.0,86,60,36,30.15,29.95,11,3,19,0.01
2013-5-13,58.8,50.4,40.7,35.0,29.7,23.0,75,47,26,30.29,30.15,12,2,18,0.00
2013-5-14,72.1,55.7,37.0,50.0,40.7,33.0,89,61,36,30.36,30.17,4,0,7,0.00
2013-5-15,83.6,70.0,52.9,57.0,51.3,49.0,88,55,32,30.18,30.02,8,1,15,0.00
2013-5-16,78.8,67.9,56.7,58.0,53.8,51.0,82,62,44,30.09,30.00,5,0,9,0.00
2013-5-17,79.2,66.2,54.3,62.0,57.2,52.0,94,75,52,30.16,30.07,1,0,5,0.00
2013-5-18,65.3,62.7,59.4,65.0,60.6,55.0,98,93,75,30.15,30.10,1,0,3,0.86
2013-5-19,74.8,65.5,61.3,68.0,63.5,61.0,99,93,78,30.17,30.05,1,0,5,0.22
2013-5-20,80.0,67.4,59.3,69.0,63.3,59.0,99,87,58,30.17,30.08,0,0,0,0.00
2013-5-21,83.4,68.3,57.7,71.0,62.6,57.0,99,84,47,30.11,29.99,0,0,7,0.08
2013-5-22,79.7,65.7,60.3,68.0,63.2,60.0,98,92,68,30.06,29.92,0,0,0,1.17
2013-5-23,75.6,66.5,59.4,65.0,58.8,52.0,99,79,51,30.00,29.91,0,0,6,0.06
2013-5-24,62.5,58.5,53.0,52.0,45.4,37.0,84,63,41,30.30,29.95,15,1,36,0.00
2013-5-25,71.2,58.6,45.1,44.0,37.6,27.0,76,49,19,30.40,30.27,4,0,13,0.00
2013-5-26,71.3,60.3,52.6,53.0,47.5,39.0,90,65,42,30.34,30.25,8,0,13,0.01
2013-5-27,76.3,64.1,48.9,60.0,54.1,47.0,94,72,52,30.34,30.21,0,0,0,0.00
2013-5-28,79.7,68.9,57.3,63.0,59.1,55.0,93,73,50,30.26,30.19,0,0,0,0.00
2013-5-29,79.0,69.7,58.4,66.0,60.8,56.0,95,75,53,30.27,30.19,0,0,0,0.00
2013-5-30,76.4,68.7,58.6,65.0,61.2,56.0,94,78,61,30.32,30.21,0,0,0,0.00
2013-5-31,80.0,71.0,61.9,65.0,61.6,59.0,93,74,54,30.27,30.16,0,0,0,0.00
2013-6-1,79.4,71.7,63.5,66.0,62.7,60.0,90,74,56,30.17,30.06,0,0,0,0.00
2013-6-2,70.2,65.0,62.7,69.0,64.1,62.0,98,96,87,30.10,29.95,0,0,0,1.15
2013-6-3,77.4,68.8,62.5,67.0,61.7,58.0,99,80,53,30.02,29.93,0,0,0,0.00
2013-6-4,75.5,67.8,58.7,65.0,62.1,57.0,96,82,70,30.14,30.01,0,0,0,0.00
2013-6-5,76.1,68.4,63.2,68.0,63.8,61.0,97,86,73,30.14,30.00,0,0,0,0.22
2013-6-6,75.1,68.0,63.2,70.0,65.6,62.0,99,92,80,30.04,29.83,0,0,0,0.03
2013-6-7,76.8,67.7,61.4,68.0,64.4,60.0,99,90,68,29.89,29.73,0,0,5,0.85
2013-6-8,78.4,68.1,60.0,68.0,63.2,60.0,98,86,60,30.14,29.89,0,0,1,0.09
2013-6-9,77.3,67.0,62.0,70.0,65.3,61.0,99,94,73,30.20,30.09,2,0,4,1.11
2013-6-10,76.3,67.8,61.7,69.0,64.5,60.0,99,90,60,30.10,29.95,2,0,11,0.77
2013-6-11,79.2,70.6,61.7,66.0,62.4,60.0,99,77,53,30.07,30.00,5,0,10,0.16
2013-6-12,87.6,75.6,61.2,73.0,66.4,59.0,97,75,49,30.09,29.97,9,1,15,0.00
2013-6-13,86.4,74.5,67.5,70.0,64.6,62.0,93,72,47,29.97,29.75,8,2,15,0.01
2013-6-14,76.5,67.6,57.9,63.0,55.5,52.0,93,67,44,30.11,29.85,14,2,19,0.00
2013-6-15,80.0,67.3,51.5,65.0,57.0,50.0,95,72,47,30.21,30.11,3,0,10,0.00
2013-6-16,81.2,70.8,57.7,68.0,62.1,56.0,95,76,52,30.20,30.06,3,0,7,0.00
2013-6-17,78.2,71.2,65.6,69.0,66.7,64.0,97,86,69,30.09,29.98,6,0,9,0.08
2013-6-18,76.2,68.6,63.3,71.0,65.9,61.0,99,91,77,30.00,29.86,7,1,14,0.04
2013-6-19,76.2,68.3,57.7,67.0,62.3,57.0,98,82,64,30.17,29.98,3,0,5,0.00
2013-6-20,75.2,68.6,61.5,67.0,63.7,60.0,96,85,71,30.28,30.16,3,0,6,0.00
2013-6-21,76.8,69.2,60.9,65.0,61.9,59.0,96,79,56,30.32,30.23,6,1,9,0.00
2013-6-22,80.8,70.3,59.5,64.0,60.5,58.0,95,73,51,30.30,30.17,3,0,6,0.00
2013-6-23,79.7,68.8,59.0,70.0,64.1,57.0,96,86,62,30.27,30.18,2,0,7,0.45
2013-6-24,83.6,72.1,62.5,72.0,67.0,62.0,99,85,64,30.27,30.14,3,0,7,0.10
2013-6-25,81.8,71.7,64.3,71.0,66.7,64.0,99,85,60,30.20,30.07,4,0,9,0.00
2013-6-26,81.7,71.9,61.4,71.0,66.8,61.0,98,85,64,30.10,29.97,1,0,11,0.00
2013-6-27,82.4,72.0,63.7,71.0,67.0,63.0,98,85,65,30.01,29.82,5,1,12,0.09
2013-6-28,83.2,74.0,65.2,70.0,66.8,63.0,96,79,53,29.87,29.67,9,1,18,0.07
2013-6-29,84.4,70.8,59.4,68.0,61.6,59.0,99,75,43,29.76,29.69,4,0,9,0.00
2013-6-30,81.5,68.8,59.0,68.0,62.6,57.0,96,82,47,29.87,29.75,2,0,7,0.01
2013-7-1,77.1,68.7,63.4,71.0,66.2,63.0,99,92,72,30.01,29.86,5,0,6,1.27
2013-7-2,77.9,69.2,63.6,71.0,67.1,63.0,99,93,73,30.18,30.00,3,0,6,0.36
2013-7-3,71.5,66.6,60.8,71.0,66.0,61.0,99,97,95,30.28,30.15,3,0,10,2.55
2013-7-4,71.6,65.6,61.1,71.0,65.4,61.0,100,99,98,30.30,30.21,3,0,4,1.47
2013-7-5,78.7,69.4,65.2,72.0,67.2,65.0,100,93,72,30.30,30.23,5,0,8,0.21
2013-7-6,78.4,70.1,65.2,72.0,68.3,65.0,99,94,77,30.27,30.16,5,0,5,0.95
2013-7-7,78.9,71.8,67.0,73.0,69.1,67.0,99,92,78,30.23,30.12,0,0,0,0.12
2013-7-8,84.3,72.5,66.1,72.0,67.5,64.0,98,86,57,30.25,30.15,6,0,7,0.00
2013-7-9,82.9,72.3,65.9,75.0,69.0,65.0,99,90,64,30.22,30.10,8,0,15,1.13
2013-7-10,79.6,69.2,63.7,76.0,68.4,64.0,100,97,80,30.18,30.02,2,0,5,0.92
2013-7-11,78.5,69.8,64.7,72.0,67.2,64.0,100,92,70,30.03,29.94,0,0,0,0.00
2013-7-12,80.0,69.6,63.8,72.0,66.7,61.0,99,91,68,30.06,29.93,0,0,0,0.06
2013-7-13,71.6,66.7,63.0,67.0,64.3,60.0,96,91,84,30.18,30.05,0,0,0,0.00
2013-7-14,71.5,68.0,65.8,70.0,67.3,65.0,99,97,90,30.35,30.16,0,0,0,1.49
2013-7-15,77.7,71.1,66.1,71.0,67.6,66.0,99,89,70,30.40,30.32,0,0,0,0.03
2013-7-16,88.6,74.7,63.3,72.0,67.6,63.0,99,80,52,30.39,30.30,0,0,0,0.00
2013-7-17,85.2,72.2,65.4,73.0,68.4,65.0,98,88,63,30.33,30.21,0,0,0,0.09
2013-7-18,85.8,74.2,66.0,76.0,70.0,66.0,99,87,65,30.27,30.13,0,0,0,0.01
2013-7-19,85.7,74.5,65.1,74.0,69.5,65.0,99,85,59,30.17,30.03,0,0,0,0.00
2013-7-20,82.9,73.2,67.2,72.0,69.2,67.0,98,88,65,30.08,29.98,0,0,0,0.00
2013-7-21,82.2,70.9,65.0,73.0,67.8,65.0,99,90,66,30.06,30.00,0,0,0,0.11
2013-7-22,79.8,71.4,64.6,73.0,68.1,64.0,99,90,69,30.06,29.89,0,0,0,0.28
2013-7-23,81.4,72.2,65.3,70.0,66.3,64.0,97,82,62,29.96,29.85,0,0,0,0.01
2013-7-24,82.0,74.8,67.4,70.0,66.3,62.0,92,76,53,29.90,29.83,7,1,10,0.00
2013-7-25,80.9,71.6,64.2,68.0,64.6,60.0,98,80,50,30.08,29.89,2,0,5,0.00
2013-7-26,78.6,69.1,59.4,70.0,65.2,58.0,98,88,68,30.15,30.06,2,0,4,0.01
2013-7-27,78.7,69.3,64.7,72.0,67.1,64.0,99,93,71,30.10,29.93,0,0,0,2.69
2013-7-28,78.6,70.7,63.0,68.0,65.2,62.0,99,84,63,30.08,29.96,3,0,9,0.00
2013-7-29,78.9,68.1,57.9,64.0,59.3,53.0,98,76,44,30.25,30.08,3,0,7,0.00
2013-7-30,78.4,68.7,58.0,69.0,63.4,56.0,97,84,65,30.29,30.20,2,0,3,0.00
2013-7-31,74.1,68.1,63.3,70.0,66.6,63.0,99,95,84,30.23,30.02,2,0,5,0.48
2013-8-1,78.8,71.4,65.8,70.0,66.6,64.0,98,85,66,30.05,29.96,2,0,11,0.00
2013-8-2,81.1,70.6,61.6,71.0,65.9,60.0,97,85,63,30.09,30.00,0,0,0,0.01
2013-8-3,79.8,71.5,63.7,69.0,65.3,63.0,99,82,60,30.09,30.03,0,0,4,0.00
2013-8-4,77.2,70.6,62.5,67.0,63.7,60.0,99,80,59,30.10,30.04,7,1,16,0.00
2013-8-5,79.7,69.4,59.6,71.0,64.4,58.0,98,85,70,30.13,30.02,0,0,1,0.86
2013-8-6,81.2,70.8,64.3,71.0,67.7,64.0,99,90,64,30.10,30.01,0,0,3,0.00
2013-8-7,72.6,69.4,67.6,71.0,68.4,67.0,98,96,92,30.12,30.06,0,0,0,0.64
2013-8-8,80.9,71.2,65.9,75.0,69.6,66.0,99,95,76,30.12,30.06,0,0,0,0.07
2013-8-9,82.1,73.0,67.0,75.0,70.3,66.0,99,91,73,30.14,30.07,0,0,1,0.04
2013-8-10,82.7,71.6,66.2,74.0,69.4,66.0,99,93,69,30.19,30.12,3,0,7,0.15
2013-8-11,82.2,71.1,65.2,74.0,68.6,65.0,100,93,67,30.21,30.12,3,0,8,0.34
2013-8-12,82.7,70.9,64.6,74.0,68.5,64.0,100,93,68,30.16,30.04,4,0,8,0.13
2013-8-13,78.6,70.6,66.0,73.0,67.9,65.0,100,91,75,30.04,29.90,9,0,11,0.08
2013-8-14,74.7,67.3,61.9,66.0,62.4,59.0,97,85,60,30.12,29.95,5,0,9,0.00
2013-8-15,65.1,61.3,58.3,59.0,56.8,54.0,93,85,77,30.21,30.11,5,1,8,0.00
2013-8-16,67.4,61.5,55.2,61.0,57.0,54.0,98,85,74,30.24,30.16,5,0,7,0.00
2013-8-17,64.5,61.0,57.9,61.0,58.1,54.0,98,90,80,30.27,30.20,1,0,5,0.11
2013-8-18,76.3,66.0,60.2,70.0,64.0,60.0,99,94,77,30.30,30.20,0,0,0,0.16
2013-8-19,73.6,66.8,62.8,69.0,65.2,63.0,99,94,80,30.27,30.15,0,0,0,1.35
2013-8-20,78.3,67.8,60.5,72.0,65.8,60.0,100,93,77,30.27,30.17,0,0,0,0.01
2013-8-21,73.8,68.3,63.3,70.0,66.8,63.0,100,94,85,30.30,30.19,0,0,0,0.17
2013-8-22,80.4,71.1,64.0,71.0,66.0,63.0,99,85,57,30.24,30.10,0,0,0,0.00
2013-8-23,80.6,70.1,60.1,70.0,65.6,60.0,99,87,65,30.14,30.04,0,0,0,0.00
2013-8-24,72.8,67.1,62.9,65.0,61.2,56.0,98,82,62,30.36,30.15,5,0,7,0.00
2013-8-25,73.5,63.7,53.0,63.0,58.3,52.0,98,83,63,30.47,30.36,3,0,5,0.00
2013-8-26,76.7,65.4,53.1,65.0,60.1,52.0,99,84,64,30.41,30.22,4,0,8,0.00
2013-8-27,79.4,68.0,56.7,70.0,63.7,56.0,99,87,69,30.24,30.09,8,1,11,0.00
2013-8-28,81.1,73.3,64.5,71.0,67.5,64.0,98,83,64,30.13,30.01,7,0,11,0.00
2013-8-29,82.8,76.6,72.2,72.0,69.3,67.0,91,78,65,30.02,29.95,7,1,12,0.00
2013-8-30,78.0,72.3,68.8,72.0,69.0,67.0,95,89,79,30.09,29.99,0,0,1,0.01
2013-8-31,80.3,72.4,67.3,72.0,68.7,66.0,98,89,72,30.02,29.93,2,0,6,0.00
2013-9-1,82.8,71.0,63.6,74.0,67.9,63.0,99,90,70,29.98,29.86,4,0,11,0.04
2013-9-2,80.1,71.1,64.3,70.0,66.9,64.0,99,88,67,29.98,29.88,2,0,9,0.00
2013-9-3,78.1,69.6,61.8,67.0,63.7,61.0,99,83,59,30.06,29.90,7,1,17,0.10
2013-9-4,79.2,68.4,58.6,68.0,63.4,58.0,99,85,59,30.18,30.06,2,0,4,0.01
2013-9-5,79.5,68.0,58.6,67.0,62.5,58.0,99,84,58,30.21,30.14,3,0,7,0.00
2013-9-6,76.4,65.4,55.7,66.0,60.6,55.0,98,85,62,30.26,30.15,3,0,10,0.00
2013-9-7,77.1,66.6,55.8,65.0,60.7,55.0,99,83,59,30.21,30.08,4,0,10,0.00
2013-9-8,76.9,67.8,59.0,69.0,63.3,58.0,98,86,68,30.09,30.02,3,0,8,0.00
2013-9-9,79.8,69.9,61.7,70.0,65.9,61.0,99,87,67,30.21,30.09,0,0,4,0.00
2013-9-10,80.6,69.6,60.8,70.0,65.3,60.0,99,87,68,30.31,30.21,3,0,4,0.00
2013-9-11,79.1,69.2,60.7,73.0,66.4,60.0,99,91,74,30.30,30.17,3,0,6,0.03
2013-9-12,77.9,69.9,62.8,70.0,66.1,62.0,99,88,72,30.18,29.95,7,0,15,0.08
2013-9-13,72.2,66.3,58.1,63.0,57.6,49.0,94,75,52,29.98,29.89,10,2,16,0.00
2013-9-14,70.1,58.2,48.7,59.0,52.2,48.0,97,82,57,30.21,29.98,3,0,7,0.00
2013-9-15,71.8,62.2,54.2,64.0,58.1,53.0,96,87,68,30.30,30.20,2,0,4,0.00
2013-9-16,74.8,64.2,52.9,63.0,58.5,52.0,99,84,53,30.24,30.17,7,1,10,0.00
2013-9-17,65.4,61.1,57.9,60.0,55.5,52.0,87,82,73,30.35,30.24,7,2,11,0.00
2013-9-18,66.1,60.2,54.6,60.0,56.3,52.0,97,87,75,30.36,30.25,3,0,5,0.01
2013-9-19,74.5,65.4,59.3,67.0,62.1,59.0,98,89,69,30.27,30.16,4,0,10,0.00
2013-9-20,78.3,67.6,59.4,68.0,63.3,59.0,99,87,59,30.16,29.99,3,0,7,0.00
2013-9-21,66.2,62.5,58.7,66.0,61.6,58.0,99,97,93,30.00,29.77,0,0,0,1.46
2013-9-22,68.3,60.2,54.2,58.0,55.5,53.0,98,85,63,30.01,29.82,5,0,9,0.01
2013-9-23,69.0,59.4,51.7,61.0,56.1,51.0,99,89,71,30.14,30.01,2,0,4,0.00
2013-9-24,71.8,61.8,53.4,64.0,58.5,53.0,98,89,69,30.15,30.00,2,0,5,0.00
2013-9-25,60.3,59.1,57.3,60.0,58.8,57.0,99,98,96,30.00,29.93,0,0,0,0.91
2013-9-26,65.1,59.4,53.5,60.0,57.0,52.0,100,92,76,30.13,29.96,3,0,7,0.00
2013-9-27,69.9,58.4,48.2,61.0,54.5,48.0,99,88,68,30.27,30.14,3,0,4,0.00
2013-9-28,63.8,59.1,55.3,59.0,55.1,53.0,93,86,77,30.32,30.23,3,0,6,0.00
2013-9-29,67.3,58.7,53.0,59.0,54.3,50.0,94,86,69,30.26,30.11,2,0,5,0.00
2013-9-30,67.7,59.4,51.1,60.0,56.2,51.0,99,89,72,30.18,30.09,3,0,5,0.00
2013-10-1,72.6,61.0,50.6,61.0,56.4,50.0,99,86,56,30.26,30.15,3,0,6,0.00
2013-10-2,73.4,62.2,53.7,64.0,58.4,53.0,99,88,62,30.27,30.17,2,0,6,0.00
2013-10-3,74.7,64.2,55.4,65.0,59.7,55.0,99,86,58,30.23,30.15,1,0,5,0.00
2013-10-4,76.3,64.6,55.3,66.0,60.7,55.0,99,88,68,30.25,30.17,2,0,4,0.00
2013-10-5,77.6,65.5,55.9,67.0,61.5,55.0,99,88,60,30.24,30.11,1,0,3,0.00
2013-10-6,74.4,65.6,57.5,66.0,61.8,57.0,99,88,69,30.14,29.95,2,0,5,0.00
2013-10-7,66.5,59.5,52.5,63.0,56.4,49.0,99,90,76,30.11,29.87,8,1,14,1.33
2013-10-8,60.1,53.1,44.8,50.0,47.5,44.0,98,82,67,30.31,30.11,8,2,12,0.00
2013-10-9,64.8,55.4,47.6,52.0,44.8,38.0,83,68,49,30.34,30.22,7,1,10,0.00
2013-10-10,66.6,55.4,42.1,54.0,49.0,41.0,98,80,60,30.24,30.14,7,1,15,0.00
2013-10-11,69.9,59.3,49.6,56.0,52.7,49.0,97,80,52,30.15,30.05,9,1,13,0.00
2013-10-12,68.5,60.5,51.8,60.0,55.6,51.0,98,84,72,30.18,30.08,6,1,9,0.00
2013-10-13,66.8,61.5,57.4,64.0,59.7,57.0,98,94,79,30.29,30.19,0,0,4,0.13
2013-10-14,62.5,59.7,56.2,60.0,58.0,55.0,98,94,84,30.31,30.23,5,0,7,0.01
2013-10-15,63.2,57.6,54.3,59.0,55.4,53.0,97,92,83,30.27,30.15,2,0,4,0.00
2013-10-16,66.1,57.4,48.2,60.0,54.3,48.0,99,90,74,30.17,30.05,1,0,6,0.00
2013-10-17,65.8,60.3,55.7,64.0,59.2,54.0,99,96,90,30.06,29.91,0,0,7,0.08
2013-10-18,65.2,55.6,48.0,57.0,51.3,45.0,95,86,66,30.12,30.00,3,0,9,0.00
2013-10-19,61.1,55.6,51.9,56.0,51.4,46.0,98,86,66,30.06,29.93,7,1,12,0.01
2013-10-20,59.8,49.5,40.6,48.0,40.9,33.0,91,74,39,30.20,30.03,5,1,15,0.00
2013-10-21,61.8,50.2,40.2,54.0,46.6,39.0,99,88,69,30.26,30.12,2,0,6,0.00
2013-10-22,63.9,55.0,48.9,54.0,49.5,47.0,98,83,59,30.14,29.90,3,0,10,0.02
2013-10-23,50.9,45.8,37.3,47.0,37.2,28.0,96,73,55,30.16,29.84,12,3,29,0.00
2013-10-24,50.4,42.1,34.4,37.0,32.7,27.0,86,70,54,30.30,30.16,7,2,12,0.00
2013-10-25,42.4,36.8,30.1,35.0,27.6,24.0,85,70,54,30.50,30.30,13,2,22,0.00
2013-10-26,53.0,37.5,24.9,37.0,29.4,23.0,95,75,41,30.49,30.23,2,0,6,0.00
2013-10-27,62.0,53.3,41.5,49.0,43.9,37.0,90,71,60,30.25,30.16,13,1,14,0.00
2013-10-28,59.1,52.3,46.2,55.0,50.1,44.0,98,92,76,30.36,30.21,0,0,4,0.08
2013-10-29,63.0,54.6,47.0,55.0,49.9,47.0,99,85,60,30.45,30.34,3,0,5,0.00
2013-10-30,70.5,59.9,52.4,58.0,53.6,50.0,94,81,59,30.38,30.25,7,0,8,0.00
2013-10-31,62.8,59.9,55.9,60.0,55.5,53.0,97,85,73,30.26,29.91,2,0,7,0.03
2013-11-1,71.8,62.9,56.8,60.0,53.9,35.0,97,75,26,29.91,29.70,8,1,14,0.11
2013-11-2,57.2,51.6,45.8,46.0,40.8,36.0,77,67,57,30.10,29.81,14,2,23,0.02
2013-11-3,52.9,45.8,39.7,38.0,35.5,32.0,89,68,45,30.48,30.10,9,1,18,0.00
2013-11-4,50.7,44.8,40.1,32.0,31.0,29.0,71,59,46,30.61,30.47,5,2,10,0.00
2013-11-5,54.5,44.9,36.5,42.0,32.8,28.0,80,64,37,30.65,30.54,6,2,11,0.00
2013-11-6,63.5,53.0,43.7,52.0,48.0,40.0,97,84,64,30.54,30.23,3,0,6,0.00
2013-11-7,56.2,49.6,39.7,54.0,44.3,31.0,98,82,69,30.26,30.09,12,2,23,0.01
2013-11-8,47.8,40.2,33.6,31.0,24.7,21.0,71,56,36,30.44,30.27,10,2,21,0.00
2013-11-9,53.6,41.1,29.8,33.0,28.0,23.0,79,62,41,30.50,30.36,2,0,4,0.00
2013-11-10,59.6,51.2,40.5,39.0,30.8,23.0,71,47,32,30.39,30.29,12,3,22,0.00
2013-11-11,57.1,45.4,33.8,31.0,26.8,24.0,73,50,29,30.43,30.28,4,0,8,0.00
2013-11-12,50.7,39.3,23.9,38.0,26.1,13.0,78,61,37,30.57,30.20,14,3,25,0.00
2013-11-13,38.8,28.4,19.7,20.0,16.6,14.0,83,63,42,30.70,30.56,12,2,15,0.00
2013-11-14,52.8,36.0,23.0,22.0,18.2,11.0,80,54,20,30.64,30.47,5,0,5,0.00
2013-11-15,52.9,44.6,33.4,49.0,35.4,14.0,97,73,39,30.47,30.31,4,0,4,0.10
2013-11-16,58.1,52.3,48.6,54.0,50.7,48.0,98,94,83,30.36,30.26,1,0,5,0.02
2013-11-17,59.3,56.6,54.5,56.0,54.9,52.0,99,94,87,30.29,29.96,1,0,5,0.25
2013-11-18,58.7,54.4,44.7,58.0,41.0,30.0,99,63,42,30.12,29.93,19,3,27,0.04
2013-11-19,48.5,42.9,36.6,30.0,25.3,24.0,64,51,38,30.35,30.11,18,3,25,0.00
2013-11-20,44.7,39.1,33.5,30.0,26.8,25.0,75,62,48,30.56,30.35,9,4,15,0.00
2013-11-21,49.0,43.9,37.9,49.0,39.2,29.0,99,84,68,30.61,30.49,9,1,13,0.03
2013-11-22,64.4,56.0,48.7,59.0,54.0,48.0,99,93,82,30.51,30.22,4,0,9,0.04
2013-11-23,56.9,45.7,30.9,53.0,40.0,20.0,92,81,60,30.33,30.18,17,4,29,0.00
2013-11-24,30.9,25.4,20.7,21.0,11.8,6.0,72,57,41,30.65,30.32,8,0,18,0.00
2013-11-25,39.8,28.1,18.8,29.0,12.8,7.0,91,56,26,30.68,30.45,0,0,0,0.01
2013-11-26,43.6,38.6,30.5,43.0,37.9,28.0,99,97,88,30.46,29.78,0,0,0,1.69
2013-11-27,42.7,29.4,22.5,42.0,25.5,16.0,96,85,71,30.34,29.74,13,3,30,0.04
2013-11-28,43.1,28.8,18.5,22.0,17.5,13.0,85,66,29,30.63,30.34,6,1,15,0.00
2013-11-29,49.1,36.0,24.9,29.0,23.5,20.0,89,62,43,30.71,30.61,8,1,12,0.04
2013-11-30,43.2,34.3,29.2,25.0,22.9,21.0,76,64,48,30.72,30.50,9,2,13,0.00
2013-12-1,53.9,37.9,26.9,36.0,29.4,22.0,90,73,50,30.50,30.16,3,0,5,0.00
2013-12-2,52.4,42.2,32.0,42.0,35.7,29.0,93,78,64,30.15,29.93,5,0,5,0.01
2013-12-3,56.9,49.1,43.5,49.0,45.3,39.0,95,87,74,30.04,29.96,3,0,5,0.00
2013-12-4,62.7,54.8,49.7,55.0,52.0,48.0,96,90,76,30.15,30.03,2,0,5,0.00
2013-12-5,68.1,61.0,56.5,62.0,58.7,55.0,98,92,77,30.16,30.05,3,0,4,0.28
2013-12-6,68.4,63.6,53.6,63.0,61.0,52.0,99,91,81,30.09,29.99,5,1,17,0.49
2013-12-7,53.4,44.8,39.7,53.0,42.6,38.0,98,92,82,30.47,30.05,11,2,15,0.01
2013-12-8,40.1,36.0,34.2,38.0,35.1,34.0,99,96,90,30.46,30.33,9,3,15,0.29
2013-12-9,53.0,46.6,36.4,53.0,46.2,36.0,99,98,96,30.34,30.13,4,0,7,0.50
2013-12-10,46.7,38.6,28.9,46.0,34.1,21.0,99,84,67,30.43,29.99,21,3,26,0.20
2013-12-11,46.9,34.5,22.6,21.0,17.5,10.0,87,55,25,30.59,30.43,6,1,16,0.00
2013-12-12,36.1,30.5,26.2,20.0,11.0,-4.0,75,48,19,30.55,30.45,10,2,20,0.00
2013-12-13,45.1,32.5,21.2,23.0,16.6,12.0,76,54,35,30.54,30.40,2,0,4,0.00
2013-12-14,42.3,39.5,36.1,41.0,34.3,22.0,98,83,52,30.41,29.90,7,1,9,0.68
2013-12-15,43.2,34.8,28.8,42.0,31.4,26.0,99,87,80,30.25,29.87,13,3,24,0.01
2013-12-16,50.6,37.0,24.4,31.0,26.8,23.0,97,70,38,30.35,30.24,4,0,8,0.00
2013-12-17,55.0,42.6,30.9,35.0,29.5,22.0,87,62,39,30.29,30.06,18,2,29,0.01
2013-12-18,43.1,34.5,28.7,23.0,12.3,4.0,69,43,20,30.45,30.19,16,3,29,0.00
2013-12-19,60.2,44.9,31.2,28.0,22.2,12.0,58,42,27,30.47,30.34,3,0,4,0.00
2013-12-20,61.2,50.5,43.7,47.0,33.9,24.0,86,55,32,30.34,30.21,3,0,8,0.00
2013-12-21,61.7,57.2,51.7,61.0,55.5,48.0,98,94,87,30.24,30.05,5,0,10,0.23
2013-12-22,62.1,58.1,55.1,61.0,57.4,55.0,99,97,90,30.13,30.00,4,0,12,2.30
2013-12-23,56.3,47.1,33.1,56.0,45.1,31.0,99,92,83,30.30,30.07,8,1,17,0.27
2013-12-24,33.0,27.8,21.0,30.0,22.0,16.0,91,79,65,30.57,30.29,13,3,20,0.00
2013-12-25,33.9,24.3,16.4,18.0,15.1,13.0,93,71,44,30.67,30.53,2,0,5,0.00
2013-12-26,44.1,32.5,22.2,25.0,20.8,15.0,82,64,42,30.53,30.43,7,1,12,0.00
2013-12-27,47.5,33.5,24.8,27.0,22.7,19.0,90,68,32,30.61,30.50,3,0,6,0.00
2013-12-28,46.9,35.8,26.7,40.0,28.8,21.0,96,77,44,30.57,30.25,3,0,8,0.28
2013-12-29,49.7,42.2,36.8,44.0,38.9,34.0,99,88,75,30.23,29.94,14,2,17,0.57
2013-12-30,45.1,40.7,34.4,38.0,35.4,30.0,92,82,75,30.25,30.09,9,2,17,0.00
2013-12-31,38.0,33.8,28.1,29.0,19.1,15.0,80,56,41,30.51,30.24,15,2,20,0.00
2014-1-1,43.2,33.6,25.6,28.0,24.1,17.0,87,69,51,30.52,30.27,3,0,4,0.00
2014-1-2,43.5,34.4,18.0,43.0,30.9,12.0,97,87,78,30.28,29.80,22,3,52,0.11